TimeMDT,TemperatureF,Dew PointF,Humidity,Sea Level PressureIn,VisibilityMPH,Wind Direction,Wind SpeedMPH,Gust SpeedMPH,PrecipitationIn,Events,Conditions,WindDirDegrees,DateUTC
12:53 AM,69.1,44.1,40,29.87,10.0,North,4.6,-,N/A,,Clear,350,2013-07-25 06:53:00
1:53 AM,64.0,44.1,48,29.88,10.0,NNW,4.6,-,N/A,,Clear,330,2013-07-25 07:53:00
2:53 AM,64.9,42.1,43,29.87,10.0,West,6.9,-,N/A,,Clear,270,2013-07-25 08:53:00
3:53 AM,66.0,39.9,38,29.87,10.0,WSW,10.4,-,N/A,,Clear,250,2013-07-25 09:53:00
4:53 AM,59.0,43.0,55,29.89,10.0,SE,5.8,-,N/A,,Clear,130,2013-07-25 10:53:00
5:53 AM,63.0,43.0,48,29.99,10.0,WSW,8.1,-,N/A,,Clear,250,2013-07-25 11:53:00
6:53 AM,61.0,44.1,54,30.02,10.0,SSE,3.5,-,N/A,,Clear,150,2013-07-25 12:53:00
7:53 AM,63.0,46.0,54,30.04,9.0,SSE,6.9,-,N/A,,Overcast,150,2013-07-25 13:53:00
8:53 AM,70.0,46.9,44,30.06,10.0,SE,10.4,-,N/A,,Clear,130,2013-07-25 14:53:00
9:53 AM,72.0,46.0,40,30.06,10.0,East,6.9,-,N/A,,Clear,100,2013-07-25 15:53:00
10:53 AM,73.9,45.0,35,30.06,10.0,West,3.5,-,N/A,,Clear,280,2013-07-25 16:53:00
11:53 AM,75.9,46.0,35,30.05,10.0,South,5.8,-,N/A,,Clear,180,2013-07-25 17:53:00
12:53 PM,77.0,46.9,34,30.03,10.0,Calm,Calm,-,N/A,,Clear,0,2013-07-25 18:53:00
1:53 PM,81.0,46.9,30,30.01,10.0,Calm,Calm,-,N/A,,Clear,0,2013-07-25 19:53:00
2:43 PM,78.8,44.6,30,30.23,10.0,NNW,9.2,-,N/A,,Clear,330,2013-07-25 20:43:00
2:53 PM,80.1,46.0,30,30.02,10.0,NNW,3.5,-,N/A,,Partly Cloudy,330,2013-07-25 20:53:00
3:53 PM,78.1,45.0,31,30.02,10.0,North,8.1,-,N/A,,Scattered Clouds,350,2013-07-25 21:53:00
4:43 PM,75.2,41.0,29,30.23,10.0,SSW,17.3,27.6,N/A,,Scattered Clouds,210,2013-07-25 22:43:00
4:53 PM,77.0,42.1,29,30.04,10.0,SSW,20.7,26.5,N/A,,Partly Cloudy,200,2013-07-25 22:53:00
5:53 PM,79.0,41.0,26,30.00,10.0,SE,3.5,-,N/A,,Clear,130,2013-07-25 23:53:00
6:53 PM,77.0,43.0,30,30.01,10.0,ESE,8.1,-,N/A,,Clear,110,2013-07-26 00:53:00
7:53 PM,75.0,44.1,33,30.01,10.0,SE,4.6,-,N/A,,Clear,130,2013-07-26 01:53:00
8:53 PM,69.1,42.1,38,30.03,10.0,ESE,11.5,-,N/A,,Clear,120,2013-07-26 02:53:00
9:53 PM,64.9,46.0,50,30.06,10.0,SE,10.4,-,N/A,,Clear,130,2013-07-26 03:53:00
10:53 PM,64.9,45.0,48,30.07,10.0,SE,6.9,-,N/A,,Clear,140,2013-07-26 04:53:00
11:53 PM,64.0,42.1,45,30.08,10.0,Calm,Calm,-,N/A,,Clear,0,2013-07-26 05:53:00